Dublin, Ireland

10:32 PM IST on September 24, 2016 (GMT +0100)
Dublin International

Weather History for EIDW - June, 2014

Change the Weather History Date:

Sunday, June 8, 2014

  Actual Average Record
Temperature  
Mean Temperature 58 °F -  
Max Temperature 65 °F 61 °F 71 °F (2006)
Min Temperature 51 °F 46 °F 35 °F (1999)
Degree Days  
Heating Degree Days 7    
Growing Degree Days 8 (Base 50)    
Moisture  
Dew Point 50 °F    
Average Humidity 74    
Maximum Humidity 94    
Minimum Humidity 45    
Precipitation  
Precipitation 0.04 in - - ()
Sea Level Pressure  
Sea Level Pressure 29.90 in    
Wind  
Wind Speed 11 mph ()    
Max Wind Speed 21 mph    
Max Gust Speed -    
Visibility 8.6 miles    
Events Rain    
Averages and records for this station are not official NWS values.
T = Trace of Precipitation, MM = Missing Value Source: Averaged Metar Reports

Daily Weather History Graph

Daily Weather History Graph

Search for Another Location

Airport or City:

Trip Planner

Search our weather history database for the weather conditions in past years. The results will help you decide how hot, cold, wet, or windy it might be!

Date:

Astronomy

Jun. 08, 2014 Rise Set
Actual Time 4:58 AM IST 9:50 PM IST
Civil Twilight 4:07 AM IST 10:41 PM IST
Nautical Twilight 2:40 AM IST 12:10 AM IST
Astronomical Twilight Sun does not set Sun does not set
Moon 4:14 PM IST (6/8) 2:28 AM IST (6/8)
Length of Visible Light 18h 34m
Length of Day
16h 52m
Waxing Gibbous, 75% of the Moon is Illuminated
Jun 8
Waxing Gibbous
Jun 13
Full
Jun 19
Last Quarter
Jun 27
New
Jul 5
First Quarter

Hourly Weather History & Observations

Time (IST) Temp. Dew Point Humidity Pressure Visibility Wind Dir Wind Speed Gust Speed Precip Events Conditions
12:00 AM 56 °F 51 °F 76% 29.86 in 12 mi SSE 8.9 mph - -   Mostly Cloudy
12:00 AM 55.4 °F 50.0 °F 82% 29.86 in 6.2 mi SSE 9.2 mph - N/A   Mostly Cloudy
12:30 AM 55.4 °F 51.8 °F 88% 29.86 in 6.2 mi SE 10.4 mph - N/A Rain Light Rain
1:00 AM 55 °F 52 °F 84% 29.86 in 7 mi SSE 6.7 mph - - Rain Light Rain Showers
1:00 AM 55.4 °F 51.8 °F 88% 29.86 in 6.2 mi SSE 6.9 mph - N/A   Scattered Clouds
1:30 AM 53.6 °F 48.2 °F 82% 29.86 in 6.2 mi SSE 10.4 mph - N/A   Partly Cloudy
2:00 AM 53 °F 49 °F 81% 29.86 in 16 mi SSE 8.9 mph - -   Scattered Clouds
2:00 AM 53.6 °F 48.2 °F 82% 29.86 in 6.2 mi SSE 9.2 mph - N/A   Scattered Clouds
2:30 AM 51.8 °F 48.2 °F 88% 29.86 in 6.2 mi SSE 9.2 mph - N/A   Scattered Clouds
3:00 AM 53 °F 47 °F 75% 29.87 in 19 mi SSE 8.9 mph - -   Scattered Clouds
3:00 AM 51.8 °F 48.2 °F 88% 29.86 in 6.2 mi SSE 10.4 mph - N/A   Scattered Clouds
3:30 AM 53.6 °F 48.2 °F 82% 29.86 in 6.2 mi SE 10.4 mph - N/A   Scattered Clouds
4:00 AM 53 °F 47 °F 75% 29.86 in 19 mi SSE 11.2 mph - -   Scattered Clouds
4:00 AM 51.8 °F 48.2 °F 88% 29.86 in 6.2 mi SSE 10.4 mph - N/A   Scattered Clouds
4:30 AM 51.8 °F 48.2 °F 88% 29.86 in 6.2 mi SE 13.8 mph - N/A   Scattered Clouds
5:00 AM 53 °F 49 °F 82% 29.87 in 19 mi SSE 13.4 mph - -   Mostly Cloudy
5:00 AM 53.6 °F 50.0 °F 88% 29.86 in 6.2 mi SSE 13.8 mph - N/A   Mostly Cloudy
5:30 AM 53.6 °F 50.0 °F 88% 29.86 in 6.2 mi SE 10.4 mph - N/A   Mostly Cloudy
6:00 AM 54 °F 51 °F 86% 29.87 in 9 mi SE 15.7 mph - - Rain Light Rain Showers
6:00 AM 55.4 °F 51.8 °F 88% 29.86 in 6.2 mi SE 16.1 mph - N/A   Mostly Cloudy
6:30 AM 53.6 °F 51.8 °F 94% 29.86 in 5.0 mi SE 13.8 mph - N/A Rain Light Rain Showers
7:00 AM 54 °F 53 °F 93% 29.87 in 7 mi SE 13.4 mph - - Rain Light Rain Showers
7:00 AM 53.6 °F 51.8 °F 94% 29.86 in 6.2 mi SE 15.0 mph - N/A   Scattered Clouds
7:30 AM 55.4 °F 53.6 °F 94% 29.86 in 6.2 mi SE 16.1 mph - N/A   Mostly Cloudy
8:00 AM 56 °F 54 °F 89% 29.88 in 8 mi SE 15.7 mph - - Rain Light Rain Showers
8:00 AM 55.4 °F 53.6 °F 94% 29.86 in 6.2 mi SE 13.8 mph - N/A   Scattered Clouds
8:30 AM 55.4 °F 53.6 °F 94% 29.86 in 6.2 mi SE 12.7 mph - N/A Rain Light Rain Showers
9:00 AM 58 °F 54 °F 82% 29.88 in 11 mi SE 13.4 mph - - Rain Light Rain Showers
9:00 AM 57.2 °F 53.6 °F 88% 29.86 in 6.2 mi SE 15.0 mph - N/A   Mostly Cloudy
9:30 AM 57.2 °F 53.6 °F 88% 29.89 in 6.2 mi SSE 13.8 mph - N/A Rain Light Rain Showers
10:00 AM 58 °F 51 °F 71% 29.89 in 11 mi SSE 17.9 mph - - Rain Light Rain Showers
10:00 AM 59.0 °F 51.8 °F 77% 29.89 in 6.2 mi SSE 16.1 mph - N/A   Mostly Cloudy
10:30 AM 57.2 °F 53.6 °F 88% 29.89 in 6.2 mi SSE 16.1 mph - N/A Rain Light Rain Showers
11:00 AM 60 °F 54 °F 76% 29.89 in 12 mi SSE 15.7 mph - - Rain Light Rain Showers
11:00 AM 60.8 °F 53.6 °F 77% 29.89 in 6.2 mi SSE 16.1 mph - N/A   Mostly Cloudy
11:30 AM 60.8 °F 53.6 °F 77% 29.89 in 6.2 mi SE 13.8 mph - N/A   Scattered Clouds
12:00 PM 61 °F 53 °F 69% 29.89 in 12 mi ESE 15.7 mph - -   Mostly Cloudy
12:00 PM 60.8 °F 53.6 °F 77% 29.89 in 6.2 mi SE 15.0 mph - N/A   Mostly Cloudy
12:30 PM 62.6 °F 51.8 °F 68% 29.89 in 6.2 mi SE 16.1 mph - N/A   Mostly Cloudy
1:00 PM 60 °F 54 °F 74% 29.90 in 16 mi SSE 20.1 mph - - Rain Light Rain Showers
1:00 PM 60.8 °F 53.6 °F 77% 29.89 in 6.2 mi SSE 20.7 mph - N/A Rain Light Rain Showers
1:30 PM 62.6 °F 50.0 °F 63% 29.89 in 6.2 mi SE 17.3 mph - N/A   Scattered Clouds
2:00 PM 60 °F 54 °F 74% 29.91 in 9 mi South 13.4 mph - - Rain Light Rain Showers
2:00 PM 60.8 °F 51.8 °F 72% 29.89 in 6.2 mi South 13.8 mph - N/A   Scattered Clouds
2:30 PM 64.4 °F 51.8 °F 64% 29.89 in 6.2 mi SE 16.1 mph - N/A   Scattered Clouds
3:00 PM 63 °F 50 °F 54% 29.92 in 7 mi SSE 15.7 mph - - Rain Light Rain Showers
3:00 PM 62.6 °F 50.0 °F 63% 29.92 in 6.2 mi SSE 17.3 mph - N/A Rain Light Rain Showers
3:30 PM 62.6 °F 51.8 °F 68% 29.92 in 6.2 mi South 13.8 mph - N/A   Mostly Cloudy
4:00 PM 64 °F 49 °F 48% 29.92 in 16 mi South 17.9 mph - -   Partly Cloudy
4:00 PM 62.6 °F 48.2 °F 59% 29.92 in 6.2 mi SSW 17.3 mph - N/A   Mostly Cloudy
4:30 PM 62.6 °F 48.2 °F 59% 29.92 in 6.2 mi South 17.3 mph - N/A   Mostly Cloudy
5:00 PM 62 °F 48 °F 49% 29.93 in 16 mi South 17.9 mph - -   Scattered Clouds
5:00 PM 62.6 °F 48.2 °F 59% 29.92 in 6.2 mi South 16.1 mph - N/A   Mostly Cloudy
5:30 PM 62.6 °F 48.2 °F 59% 29.92 in 6.2 mi South 20.7 mph - N/A   Mostly Cloudy
6:00 PM 64 °F 49 °F 47% 29.93 in 16 mi South 17.9 mph - -   Scattered Clouds
6:30 PM 62.6 °F 46.4 °F 55% 29.92 in 6.2 mi SSW 17.3 mph - N/A   Partly Cloudy
7:00 PM 62 °F 48 °F 49% 29.95 in 16 mi South 15.7 mph - -   Partly Cloudy
7:00 PM 62.6 °F 48.2 °F 59% 29.95 in 6.2 mi South 16.1 mph - N/A   Partly Cloudy
7:30 PM 60.8 °F 48.2 °F 63% 29.95 in 6.2 mi South 9.2 mph - N/A   Partly Cloudy
8:00 PM 62 °F 46 °F 45% 29.96 in 16 mi ESE 11.2 mph - -   Partly Cloudy
8:00 PM 62.6 °F 46.4 °F 55% 29.95 in 6.2 mi SE 11.5 mph - N/A   Partly Cloudy
8:30 PM 60.8 °F 46.4 °F 59% 29.95 in 6.2 mi South 12.7 mph - N/A   Mostly Cloudy
9:00 PM 59 °F 47 °F 53% 29.98 in 16 mi SSE 8.9 mph - -   Scattered Clouds
9:00 PM 59.0 °F 46.4 °F 63% 29.95 in 6.2 mi SSE 8.1 mph - N/A   Mostly Cloudy
9:30 PM 57.2 °F 48.2 °F 72% 29.98 in 6.2 mi SSE 9.2 mph - N/A   Mostly Cloudy
10:00 PM 57 °F 47 °F 62% 29.99 in 16 mi South 8.9 mph - -   Scattered Clouds
10:00 PM 57.2 °F 48.2 °F 72% 29.98 in 6.2 mi South 9.2 mph - N/A   Mostly Cloudy
10:30 PM 55.4 °F 48.2 °F 77% 29.98 in 6.2 mi South 10.4 mph - N/A   Mostly Cloudy
11:00 PM 56 °F 48 °F 66% 30.01 in 16 mi SSE 6.7 mph - -   Scattered Clouds
11:00 PM 55.4 °F 48.2 °F 77% 30.01 in 6.2 mi SSE 5.8 mph - N/A   Mostly Cloudy
11:30 PM 55.4 °F 48.2 °F 77% 30.01 in 6.2 mi South 5.8 mph - N/A   Mostly Cloudy